TimeCDT,TemperatureF,Dew PointF,Humidity,Sea Level PressureIn,VisibilityMPH,Wind Direction,Wind SpeedMPH,Gust SpeedMPH,PrecipitationIn,Events,Conditions,WindDirDegrees,DateUTC
12:56 AM,57.9,55.9,93,30.17,10.0,Calm,Calm,-,N/A,,Clear,0,2012-10-04 05:56:00
1:56 AM,57.9,55.0,90,30.17,10.0,Calm,Calm,-,N/A,,Clear,0,2012-10-04 06:56:00
2:56 AM,55.9,54.0,93,30.18,10.0,Calm,Calm,-,N/A,,Clear,0,2012-10-04 07:56:00
3:56 AM,55.9,54.0,93,30.18,10.0,Calm,Calm,-,N/A,,Clear,0,2012-10-04 08:56:00
4:56 AM,57.0,55.0,93,30.19,10.0,Calm,Calm,-,N/A,,Clear,0,2012-10-04 09:56:00
5:44 AM,55.4,53.6,94,30.21,10.0,Calm,Calm,-,N/A,,Scattered Clouds,0,2012-10-04 10:44:00
5:52 AM,57.2,55.4,94,30.21,10.0,Calm,Calm,-,N/A,,Mostly Cloudy,0,2012-10-04 10:52:00
6:40 AM,57.2,55.4,94,30.23,10.0,Calm,Calm,-,N/A,,Scattered Clouds,0,2012-10-04 11:40:00
6:48 AM,57.2,55.4,94,30.23,10.0,Calm,Calm,-,N/A,,Mostly Cloudy,0,2012-10-04 11:48:00
6:56 AM,57.0,55.0,93,30.23,10.0,Calm,Calm,-,N/A,,Mostly Cloudy,0,2012-10-04 11:56:00
7:05 AM,57.2,55.4,94,30.24,10.0,Calm,Calm,-,N/A,,Mostly Cloudy,0,2012-10-04 12:05:00
7:29 AM,59.0,57.2,94,30.25,10.0,Calm,Calm,-,N/A,,Partly Cloudy,0,2012-10-04 12:29:00
7:56 AM,62.1,59.0,90,30.25,10.0,Calm,Calm,-,N/A,,Clear,0,2012-10-04 12:56:00
8:16 AM,62.6,60.8,94,30.26,9.0,SE,3.5,-,N/A,,Scattered Clouds,140,2012-10-04 13:16:00
8:22 AM,62.6,60.8,94,30.26,2.5,ESE,4.6,-,N/A,,Mostly Cloudy,110,2012-10-04 13:22:00
8:29 AM,62.6,60.8,94,30.26,1.2,Calm,Calm,-,N/A,,Mostly Cloudy,0,2012-10-04 13:29:00
8:43 AM,62.6,62.6,100,30.27,0.2,East,4.6,-,N/A,Fog,Fog,100,2012-10-04 13:43:00
9:34 AM,64.4,64.4,100,30.27,1.5,Calm,Calm,-,N/A,,Overcast,0,2012-10-04 14:34:00
9:40 AM,66.2,64.4,94,30.27,3.0,Calm,Calm,-,N/A,,Overcast,0,2012-10-04 14:40:00
9:56 AM,66.9,64.0,90,30.26,10.0,Calm,Calm,-,N/A,,Scattered Clouds,0,2012-10-04 14:56:00
10:56 AM,75.9,64.0,67,30.25,10.0,ENE,5.8,-,N/A,,Partly Cloudy,60,2012-10-04 15:56:00
11:56 AM,79.0,62.1,56,30.23,10.0,NE,5.8,-,N/A,,Clear,50,2012-10-04 16:56:00
12:56 PM,81.0,60.1,49,30.21,10.0,ENE,4.6,-,N/A,,Clear,70,2012-10-04 17:56:00
1:56 PM,82.0,59.0,45,30.19,10.0,NNE,10.4,-,N/A,,Clear,20,2012-10-04 18:56:00
2:56 PM,82.9,57.9,42,30.18,10.0,North,9.2,-,N/A,,Clear,10,2012-10-04 19:56:00
3:56 PM,82.9,57.9,42,30.17,10.0,North,5.8,-,N/A,,Clear,10,2012-10-04 20:56:00
4:56 PM,82.0,57.9,44,30.16,10.0,North,4.6,-,N/A,,Clear,10,2012-10-04 21:56:00
5:56 PM,79.0,60.1,52,30.16,10.0,Calm,Calm,-,N/A,,Clear,0,2012-10-04 22:56:00
6:56 PM,72.0,63.0,73,30.17,10.0,Calm,Calm,-,N/A,,Clear,0,2012-10-04 23:56:00
7:56 PM,68.0,62.1,81,30.18,10.0,Calm,Calm,-,N/A,,Clear,0,2012-10-05 00:56:00
8:56 PM,64.9,62.1,90,30.19,10.0,North,4.6,-,N/A,,Clear,350,2012-10-05 01:56:00
9:56 PM,64.0,61.0,90,30.20,10.0,Calm,Calm,-,N/A,,Clear,0,2012-10-05 02:56:00
10:56 PM,63.0,60.1,90,30.19,10.0,Calm,Calm,-,N/A,,Clear,0,2012-10-05 03:56:00